N14CK KALB-KFRG

Flight info

Callsign N14CK
Flight time 0h 51m
Altitude 15000
Route V91 BDR ODALE
Aircraft BE36/L-VGD/C

Departure

Time 2026-04-29 23:41
Airport Albany International Airport (KALB)

Arrival

Time 2026-04-30 00:33
Airport Republic Airport (KFRG)
Time Latitude Longitude Altitude Speed Heading
2026-04-29 23:19 42.73942 -73.80730 281 ft 0 kts 268°
2026-04-29 23:30 42.73942 -73.80732 281 ft 2 kts 268°
2026-04-29 23:30 42.73925 -73.80723 281 ft 10 kts 87°
2026-04-29 23:31 42.73901 -73.80615 280 ft 12 kts 101°
2026-04-29 23:31 42.73967 -73.80587 280 ft 12 kts 359°
2026-04-29 23:31 42.74054 -73.80590 281 ft 13 kts 358°
2026-04-29 23:31 42.74144 -73.80594 282 ft 13 kts 358°
2026-04-29 23:32 42.74238 -73.80598 284 ft 15 kts 358°
2026-04-29 23:32 42.74347 -73.80603 285 ft 17 kts 358°
2026-04-29 23:32 42.74472 -73.80611 286 ft 19 kts 360°
2026-04-29 23:32 42.74610 -73.80614 285 ft 21 kts 358°
2026-04-29 23:33 42.74760 -73.80621 284 ft 22 kts 358°
2026-04-29 23:33 42.74920 -73.80628 282 ft 24 kts 358°
2026-04-29 23:33 42.75092 -73.80639 280 ft 25 kts 356°
2026-04-29 23:33 42.75262 -73.80644 281 ft 25 kts
2026-04-29 23:34 42.75440 -73.80651 280 ft 26 kts 358°
2026-04-29 23:34 42.75613 -73.80660 284 ft 25 kts 358°
2026-04-29 23:34 42.75792 -73.80667 282 ft 26 kts 358°
2026-04-29 23:34 42.75897 -73.80740 282 ft 17 kts 313°
2026-04-29 23:35 42.75938 -73.80732 283 ft 0 kts 90°
2026-04-29 23:38 42.75938 -73.80725 283 ft 4 kts 86°
2026-04-29 23:38 42.75979 -73.80680 284 ft 11 kts
2026-04-29 23:38 42.76037 -73.80626 283 ft 0 kts 78°
2026-04-29 23:40 42.76038 -73.80597 284 ft 9 kts 92°
2026-04-29 23:40 42.75983 -73.80526 284 ft 13 kts 175°
2026-04-29 23:41 42.75969 -73.80525 284 ft 0 kts 178°
2026-04-29 23:41 42.75721 -73.80511 296 ft 74 kts 178°
2026-04-29 23:41 42.75079 -73.80463 503 ft 106 kts 176°
2026-04-29 23:41 42.74352 -73.80396 1021 ft 104 kts 173°
2026-04-29 23:42 42.73626 -73.80358 1531 ft 106 kts 177°
2026-04-29 23:42 42.72890 -73.80337 2033 ft 106 kts 175°
2026-04-29 23:42 42.72157 -73.80281 2494 ft 107 kts 176°
2026-04-29 23:42 42.71416 -73.80273 2954 ft 108 kts 179°
2026-04-29 23:43 42.70661 -73.80294 3389 ft 110 kts 180°
2026-04-29 23:43 42.69869 -73.80350 3753 ft 117 kts 181°
2026-04-29 23:43 42.69007 -73.80397 3940 ft 133 kts 181°
2026-04-29 23:43 42.68018 -73.80462 3964 ft 149 kts 181°
2026-04-29 23:44 42.66954 -73.80529 4015 ft 157 kts 181°
2026-04-29 23:44 42.65834 -73.80571 4012 ft 164 kts 180°
2026-04-29 23:44 42.64671 -73.80609 3938 ft 170 kts 180°
2026-04-29 23:44 42.63497 -73.80655 3865 ft 167 kts 180°
2026-04-29 23:45 42.62356 -73.80707 3760 ft 163 kts 181°
2026-04-29 23:45 42.61238 -73.80801 3780 ft 155 kts 182°
2026-04-29 23:45 42.60174 -73.80900 3818 ft 152 kts 182°
2026-04-29 23:45 42.59116 -73.81002 3801 ft 152 kts 182°
2026-04-29 23:46 42.58053 -73.81101 3823 ft 154 kts 182°
2026-04-29 23:46 42.56983 -73.81234 3874 ft 155 kts 185°
2026-04-29 23:46 42.55906 -73.81388 3907 ft 155 kts 183°
2026-04-29 23:46 42.54826 -73.81429 3963 ft 155 kts 180°
2026-04-29 23:47 42.53754 -73.81399 4146 ft 154 kts 175°
2026-04-29 23:47 42.52697 -73.81217 4332 ft 154 kts 172°
2026-04-29 23:47 42.51644 -73.80934 4537 ft 154 kts 165°
2026-04-29 23:47 42.50646 -73.80390 4746 ft 154 kts 159°
2026-04-29 23:48 42.49643 -73.79826 4897 ft 157 kts 162°
2026-04-29 23:48 42.48614 -73.79320 5091 ft 157 kts 163°
2026-04-29 23:48 42.47610 -73.78810 5312 ft 156 kts 162°
2026-04-29 23:48 42.46588 -73.78284 5546 ft 154 kts 163°
2026-04-29 23:49 42.45590 -73.77769 5789 ft 153 kts 162°
2026-04-29 23:49 42.44596 -73.77258 6040 ft 152 kts 163°
2026-04-29 23:49 42.43941 -73.76920 6209 ft 152 kts 163°
2026-04-29 23:49 42.42631 -73.76245 6523 ft 152 kts 163°
2026-04-29 23:50 42.41640 -73.75735 6769 ft 153 kts 164°
2026-04-29 23:50 42.40646 -73.75224 7017 ft 153 kts 163°
2026-04-29 23:50 42.38971 -73.74363 7428 ft 154 kts 163°
2026-04-29 23:51 42.37634 -73.73674 7759 ft 155 kts 163°
2026-04-29 23:51 42.36622 -73.73155 8014 ft 156 kts 163°
2026-04-29 23:51 42.35607 -73.72633 8260 ft 157 kts 163°
2026-04-29 23:51 42.34580 -73.72106 8514 ft 158 kts 163°
2026-04-29 23:52 42.33898 -73.71756 8685 ft 158 kts 163°
2026-04-29 23:52 42.32850 -73.71218 8909 ft 162 kts 163°
2026-04-29 23:52 42.31768 -73.70668 8915 ft 173 kts 163°
2026-04-29 23:52 42.30615 -73.70076 8920 ft 180 kts 163°
2026-04-29 23:53 42.29426 -73.69465 8923 ft 185 kts 163°
2026-04-29 23:53 42.28208 -73.68838 8922 ft 189 kts 162°
2026-04-29 23:53 42.26983 -73.68210 8922 ft 189 kts 163°
2026-04-29 23:53 42.25755 -73.67580 8921 ft 189 kts 163°
2026-04-29 23:54 42.24532 -73.66954 8920 ft 187 kts 163°
2026-04-29 23:54 42.23320 -73.66334 8921 ft 186 kts 163°
2026-04-29 23:54 42.22113 -73.65717 8919 ft 185 kts 163°
2026-04-29 23:54 42.20909 -73.65102 8900 ft 185 kts 163°
2026-04-29 23:55 42.19698 -73.64483 8909 ft 187 kts 163°
2026-04-29 23:55 42.18475 -73.63857 8909 ft 189 kts 163°
2026-04-29 23:55 42.17241 -73.63229 8910 ft 190 kts 163°
2026-04-29 23:55 42.16004 -73.62597 8914 ft 190 kts 163°
2026-04-29 23:56 42.14766 -73.61964 8914 ft 190 kts 163°
2026-04-29 23:56 42.13529 -73.61335 8915 ft 190 kts 163°
2026-04-29 23:56 42.12292 -73.60704 8913 ft 190 kts 163°
2026-04-29 23:56 42.11053 -73.60071 8915 ft 190 kts 163°
2026-04-29 23:57 42.09819 -73.59443 8917 ft 190 kts 163°
2026-04-29 23:57 42.08582 -73.58814 8914 ft 190 kts 163°
2026-04-29 23:57 42.07347 -73.58186 8917 ft 190 kts 163°
2026-04-29 23:57 42.06114 -73.57558 8914 ft 190 kts 163°
2026-04-29 23:58 42.04877 -73.56929 8920 ft 190 kts 163°
2026-04-29 23:58 42.03642 -73.56302 8909 ft 190 kts 163°
2026-04-29 23:58 42.02403 -73.55673 8910 ft 190 kts 163°
2026-04-29 23:58 42.01160 -73.55043 8909 ft 191 kts 163°
2026-04-29 23:59 41.99918 -73.54410 8910 ft 191 kts 163°
2026-04-29 23:59 41.98680 -73.53782 8921 ft 191 kts 163°
2026-04-29 23:59 41.97442 -73.53153 8919 ft 190 kts 162°
2026-04-29 23:59 41.96207 -73.52530 8919 ft 189 kts 163°
2026-04-30 00:00 41.94972 -73.51905 8920 ft 190 kts 163°
2026-04-30 00:00 41.93737 -73.51277 8924 ft 189 kts 163°
2026-04-30 00:00 41.92507 -73.50654 8933 ft 190 kts 163°
2026-04-30 00:00 41.91270 -73.50028 8937 ft 190 kts 163°
2026-04-30 00:01 41.90034 -73.49403 8946 ft 190 kts 163°
2026-04-30 00:01 41.88800 -73.48779 8946 ft 190 kts 163°
2026-04-30 00:01 41.87579 -73.48162 8945 ft 190 kts 163°
2026-04-30 00:01 41.86340 -73.47536 8943 ft 190 kts 163°
2026-04-30 00:02 41.85104 -73.46911 8944 ft 190 kts 163°
2026-04-30 00:02 41.83865 -73.46286 8944 ft 190 kts 163°
2026-04-30 00:02 41.82623 -73.45660 8945 ft 191 kts 163°
2026-04-30 00:02 41.81386 -73.45035 8948 ft 190 kts 163°
2026-04-30 00:03 41.80144 -73.44408 8946 ft 190 kts 163°
2026-04-30 00:03 41.78903 -73.43783 8945 ft 191 kts 163°
2026-04-30 00:03 41.77660 -73.43158 8949 ft 191 kts 163°
2026-04-30 00:03 41.76414 -73.42529 8950 ft 191 kts 163°
2026-04-30 00:04 41.75166 -73.41901 8948 ft 191 kts 163°
2026-04-30 00:04 41.73922 -73.41275 8950 ft 191 kts 163°
2026-04-30 00:04 41.72674 -73.40648 8953 ft 192 kts 163°
2026-04-30 00:04 41.71426 -73.40020 8949 ft 192 kts 163°
2026-04-30 00:05 41.70179 -73.39391 8954 ft 192 kts 163°
2026-04-30 00:05 41.68931 -73.38767 8954 ft 191 kts 163°
2026-04-30 00:05 41.67684 -73.38140 8956 ft 191 kts 163°
2026-04-30 00:05 41.66437 -73.37514 8950 ft 191 kts 163°
2026-04-30 00:06 41.65190 -73.36888 8958 ft 191 kts 163°
2026-04-30 00:06 41.63946 -73.36265 8966 ft 191 kts 163°
2026-04-30 00:06 41.62701 -73.35639 8966 ft 191 kts 163°
2026-04-30 00:06 41.61456 -73.35016 8965 ft 191 kts 163°
2026-04-30 00:07 41.60210 -73.34391 8964 ft 192 kts 163°
2026-04-30 00:07 41.58956 -73.33766 8966 ft 192 kts 163°
2026-04-30 00:07 41.57707 -73.33139 8964 ft 192 kts 163°
2026-04-30 00:07 41.56452 -73.32512 8965 ft 192 kts 163°
2026-04-30 00:08 41.55203 -73.31886 8976 ft 192 kts 163°
2026-04-30 00:08 41.53953 -73.31261 8971 ft 192 kts 163°
2026-04-30 00:08 41.52702 -73.30636 8975 ft 192 kts 163°
2026-04-30 00:08 41.51448 -73.30011 8967 ft 192 kts 163°
2026-04-30 00:09 41.50188 -73.29384 8966 ft 194 kts 163°
2026-04-30 00:09 41.48921 -73.28750 8969 ft 195 kts 163°
2026-04-30 00:09 41.47644 -73.28113 8966 ft 196 kts 163°
2026-04-30 00:09 41.46372 -73.27479 8970 ft 196 kts 163°
2026-04-30 00:10 41.45096 -73.26841 8973 ft 196 kts 163°
2026-04-30 00:10 41.43821 -73.26206 8972 ft 196 kts 163°
2026-04-30 00:10 41.42542 -73.25571 8973 ft 196 kts 163°
2026-04-30 00:10 41.41270 -73.24936 8972 ft 195 kts 163°
2026-04-30 00:11 41.40037 -73.24154 8971 ft 198 kts 153°
2026-04-30 00:11 41.38846 -73.23190 8767 ft 200 kts 152°
2026-04-30 00:11 41.37653 -73.22256 8561 ft 198 kts 153°
2026-04-30 00:11 41.36462 -73.21356 8349 ft 196 kts 154°
2026-04-30 00:12 41.35278 -73.20463 8146 ft 195 kts 154°
2026-04-30 00:12 41.34105 -73.19577 7945 ft 193 kts 153°
2026-04-30 00:12 41.32942 -73.18697 7744 ft 192 kts 153°
2026-04-30 00:12 41.31782 -73.17821 7545 ft 191 kts 153°
2026-04-30 00:13 41.30648 -73.16966 7352 ft 190 kts 153°
2026-04-30 00:13 41.29501 -73.16102 7154 ft 189 kts 153°
2026-04-30 00:13 41.28356 -73.15237 6958 ft 190 kts 153°
2026-04-30 00:13 41.27203 -73.14368 6764 ft 190 kts 153°
2026-04-30 00:14 41.26052 -73.13500 6575 ft 190 kts 153°
2026-04-30 00:14 41.24902 -73.12635 6384 ft 190 kts 153°
2026-04-30 00:14 41.23752 -73.11768 6187 ft 190 kts 153°
2026-04-30 00:14 41.22607 -73.10906 5983 ft 189 kts 153°
2026-04-30 00:15 41.21459 -73.10043 5779 ft 189 kts 153°
2026-04-30 00:15 41.20321 -73.09187 5577 ft 188 kts 153°
2026-04-30 00:15 41.19181 -73.08330 5374 ft 188 kts 153°
2026-04-30 00:15 41.18047 -73.07478 5174 ft 187 kts 153°
2026-04-30 00:16 41.16917 -73.06630 4976 ft 187 kts 153°
2026-04-30 00:16 41.15782 -73.05778 4777 ft 186 kts 153°
2026-04-30 00:16 41.14657 -73.04933 4579 ft 186 kts 153°
2026-04-30 00:16 41.13531 -73.04089 4370 ft 186 kts 153°
2026-04-30 00:17 41.12406 -73.03246 4164 ft 185 kts 152°
2026-04-30 00:17 41.11238 -73.02591 3978 ft 181 kts 175°
2026-04-30 00:17 41.10055 -73.03015 3968 ft 181 kts 214°
2026-04-30 00:17 41.09364 -73.04386 3970 ft 185 kts 251°
2026-04-30 00:18 41.09009 -73.06025 3974 ft 184 kts 246°
2026-04-30 00:18 41.08487 -73.07570 3977 ft 184 kts 241°
2026-04-30 00:18 41.07916 -73.09086 3977 ft 183 kts 241°
2026-04-30 00:18 41.07350 -73.10596 3981 ft 183 kts 240°
2026-04-30 00:19 41.06782 -73.12114 3980 ft 184 kts 241°
2026-04-30 00:19 41.06213 -73.13632 3979 ft 184 kts 241°
2026-04-30 00:19 41.05642 -73.15157 3978 ft 185 kts 241°
2026-04-30 00:19 41.05073 -73.16686 3976 ft 185 kts 241°
2026-04-30 00:20 41.04504 -73.18215 3978 ft 185 kts 241°
2026-04-30 00:20 41.03932 -73.19748 3976 ft 185 kts 241°
2026-04-30 00:20 41.03361 -73.21275 3977 ft 185 kts 241°
2026-04-30 00:20 41.02788 -73.22806 3979 ft 185 kts 241°
2026-04-30 00:21 41.02217 -73.24334 3980 ft 185 kts 241°
2026-04-30 00:21 41.01644 -73.25864 3978 ft 185 kts 241°
2026-04-30 00:21 41.01071 -73.27394 3978 ft 185 kts 241°
2026-04-30 00:21 41.00497 -73.28924 3981 ft 185 kts 241°
2026-04-30 00:22 40.99924 -73.30454 3982 ft 186 kts 239°
2026-04-30 00:22 40.99350 -73.31984 3978 ft 185 kts 240°
2026-04-30 00:22 40.98776 -73.33512 3978 ft 185 kts 240°
2026-04-30 00:22 40.98203 -73.35037 3978 ft 185 kts 240°
2026-04-30 00:23 40.97630 -73.36560 3975 ft 185 kts 240°
2026-04-30 00:23 40.97057 -73.38088 3974 ft 185 kts 240°
2026-04-30 00:23 40.96481 -73.39612 3930 ft 188 kts 239°
2026-04-30 00:23 40.95750 -73.41066 3764 ft 192 kts 230°
2026-04-30 00:24 40.94940 -73.42486 3593 ft 195 kts 230°
2026-04-30 00:24 40.94118 -73.43925 3420 ft 197 kts 230°
2026-04-30 00:24 40.93128 -73.45132 3243 ft 194 kts 206°
2026-04-30 00:24 40.91888 -73.45831 3070 ft 194 kts 199°
2026-04-30 00:25 40.90630 -73.46469 2892 ft 194 kts 199°
2026-04-30 00:25 40.89411 -73.47222 2707 ft 195 kts 215°
2026-04-30 00:25 40.88671 -73.48706 2529 ft 198 kts 248°
2026-04-30 00:25 40.88322 -73.50458 2346 ft 193 kts 253°
2026-04-30 00:26 40.88025 -73.52122 2165 ft 185 kts 253°
2026-04-30 00:26 40.87741 -73.53755 1984 ft 179 kts 253°
2026-04-30 00:26 40.87478 -73.55315 1962 ft 167 kts 253°
2026-04-30 00:26 40.87234 -73.56745 1952 ft 153 kts 248°
2026-04-30 00:27 40.86607 -73.57717 1961 ft 136 kts 198°
2026-04-30 00:27 40.85713 -73.57647 1956 ft 130 kts 162°
2026-04-30 00:27 40.84853 -73.57288 1965 ft 128 kts 162°
2026-04-30 00:27 40.84010 -73.56927 1960 ft 127 kts 162°
2026-04-30 00:28 40.83225 -73.56430 1963 ft 128 kts 141°
2026-04-30 00:28 40.82634 -73.55558 1965 ft 127 kts 134°
2026-04-30 00:28 40.82044 -73.54690 1992 ft 124 kts 134°
2026-04-30 00:28 40.81482 -73.53858 1980 ft 119 kts 134°
2026-04-30 00:29 40.80925 -73.53058 1955 ft 118 kts 136°
2026-04-30 00:29 40.80363 -73.52276 1974 ft 117 kts 134°
2026-04-30 00:29 40.79837 -73.51445 1969 ft 118 kts 133°
2026-04-30 00:29 40.79302 -73.50647 1885 ft 115 kts 135°
2026-04-30 00:30 40.78764 -73.49877 1754 ft 110 kts 133°
2026-04-30 00:30 40.78261 -73.49151 1632 ft 105 kts 136°
2026-04-30 00:30 40.77773 -73.48440 1502 ft 105 kts 134°
2026-04-30 00:30 40.77288 -73.47719 1320 ft 104 kts 134°
2026-04-30 00:31 40.76802 -73.47022 1134 ft 102 kts 135°
2026-04-30 00:31 40.76338 -73.46342 978 ft 98 kts 135°
2026-04-30 00:31 40.75877 -73.45678 824 ft 97 kts 135°
2026-04-30 00:31 40.75444 -73.45031 714 ft 93 kts 135°
2026-04-30 00:32 40.75010 -73.44404 642 ft 93 kts 134°
2026-04-30 00:32 40.74572 -73.43764 532 ft 95 kts 134°
2026-04-30 00:32 40.74126 -73.43141 364 ft 90 kts 137°
2026-04-30 00:32 40.73729 -73.42555 222 ft 83 kts 138°
2026-04-30 00:33 40.73351 -73.42006 104 ft 77 kts 138°
2026-04-30 00:33 40.73043 -73.41567 74 ft 36 kts 132°
2026-04-30 00:33 40.72939 -73.41411 81 ft 21 kts 133°
2026-04-30 00:33 40.72818 -73.41284 78 ft 19 kts 131°
2026-04-30 00:34 40.72707 -73.41176 78 ft 18 kts 244°
2026-04-30 00:34 40.72714 -73.41270 79 ft 0 kts 274°
2026-04-30 00:34 40.72714 -73.41279 79 ft 5 kts 274°
2026-04-30 00:34 40.72716 -73.41308 75 ft 3 kts 275°
2026-04-30 00:35 40.72719 -73.41424 80 ft 18 kts 269°
2026-04-30 00:35 40.72750 -73.41543 80 ft 15 kts 355°
2026-04-30 00:35 40.72831 -73.41546 81 ft 8 kts
2026-04-30 00:35 40.72920 -73.41604 74 ft 18 kts 313°
2026-04-30 00:36 40.73004 -73.41725 81 ft 18 kts 313°
2026-04-30 00:36 40.73056 -73.41833 75 ft 11 kts 221°
2026-04-30 00:36 40.73006 -73.41909 76 ft 12 kts 242°
2026-04-30 00:36 40.72971 -73.41975 76 ft 4 kts 218°
2026-04-30 00:37 40.72971 -73.42005 76 ft 3 kts 349°
2026-04-30 00:37 40.72973 -73.42006 76 ft 0 kts 354°